Find Starlink 30997

NORAD ID: 58482 Int'l Des: 2023-186 Owner: SPXS Country: US Constellation: starlink operational
LEOCIRCULAR

当前视图

正在加载3D地球...

About Starlink 30997

Starlink 30997 (NORAD 58482) is a starlink constellation satellite (v2 mini) launched Dec 3, 2023 by SPXS of US. It operates in LEO, CIRCULAR orbit with a mass of 730.00 kg.

关于 Starlink 30997

正在加载描述...

即将过境

Passes for default location (London). Set your location on the main map for personalized predictions.

高度历史

Loading altitude history...

两行轨道根数

1 58482U 23186K 26166.88909858 .00011248 00000-0 41758-3 0 9997
2 58482 43.0015 229.1172 0001459 263.7565 96.3120 15.27585283140911
Epoch: Jun 15, 2026 • Age: 28 hours

当前状态

高度 483.6 km
速度 7.63 km/s
星下点 26.42°N, 37.34°W
发射日期 Dec 3, 2023
运行时间 2.5 years
类型 internet

技术详情

分类 Payload
质量 730.00 kg
干质量 700.00 kg
总质量 730.00 kg
长度 0.30 m
直径 4.10 m
跨度 29.00 m
形状 Box + pan
制造商 SPXS
平台类型 Starlink V2M
阶段状态 In Orbit
所有者/国家 SPXS/US

Most Searched